TimeMDT,TemperatureF,Dew PointF,Humidity,Sea Level PressureIn,VisibilityMPH,Wind Direction,Wind SpeedMPH,Gust SpeedMPH,PrecipitationIn,Events,Conditions,WindDirDegrees,DateUTC
12:55 AM,48.0,42.1,80,30.10,10.0,North,-9999.0,-,N/A,,Clear,0,2013-07-14 06:55:00
1:55 AM,48.9,42.1,77,30.10,10.0,WNW,3.5,-,N/A,,Clear,300,2013-07-14 07:55:00
2:55 AM,48.9,39.9,71,30.10,10.0,WNW,3.5,-,N/A,,Clear,290,2013-07-14 08:55:00
3:55 AM,46.9,41.0,80,30.10,10.0,Calm,Calm,-,N/A,,Clear,0,2013-07-14 09:55:00
4:55 AM,48.0,42.1,80,30.10,10.0,Calm,Calm,-,N/A,,Clear,0,2013-07-14 10:55:00
5:55 AM,44.1,39.9,85,30.11,10.0,Calm,Calm,-,N/A,,Clear,0,2013-07-14 11:55:00
6:55 AM,51.1,44.1,77,30.11,10.0,Calm,Calm,-,N/A,,Clear,0,2013-07-14 12:55:00
7:55 AM,55.9,45.0,67,30.11,10.0,Calm,Calm,-,N/A,,Clear,0,2013-07-14 13:55:00
8:55 AM,62.1,43.0,50,30.11,10.0,North,4.6,-,N/A,,Clear,10,2013-07-14 14:55:00
9:55 AM,66.0,45.0,47,30.12,10.0,ENE,5.8,-,N/A,,Clear,60,2013-07-14 15:55:00
10:55 AM,68.0,45.0,43,30.12,10.0,SE,3.5,-,N/A,,Clear,140,2013-07-14 16:55:00
11:55 AM,72.0,43.0,35,30.10,10.0,SSE,10.4,-,N/A,,Clear,150,2013-07-14 17:55:00
12:55 PM,75.0,42.1,31,30.08,10.0,SSE,9.2,-,N/A,,Clear,150,2013-07-14 18:55:00
1:55 PM,78.1,37.0,23,30.06,10.0,South,6.9,-,N/A,,Clear,190,2013-07-14 19:55:00
2:55 PM,80.1,37.0,21,30.04,10.0,SSE,12.7,18.4,N/A,,Clear,160,2013-07-14 20:55:00
3:55 PM,81.0,39.0,22,30.02,10.0,SSE,10.4,-,N/A,,Clear,160,2013-07-14 21:55:00
4:55 PM,82.0,37.9,21,29.99,10.0,SSE,10.4,-,N/A,,Clear,150,2013-07-14 22:55:00
5:55 PM,82.9,36.0,19,29.97,10.0,South,8.1,-,N/A,,Clear,170,2013-07-14 23:55:00
6:55 PM,82.0,37.9,21,29.94,10.0,South,10.4,-,N/A,,Clear,170,2013-07-15 00:55:00
7:55 PM,81.0,37.9,21,29.91,10.0,South,3.5,-,N/A,,Clear,180,2013-07-15 01:55:00
8:55 PM,73.0,45.0,37,29.91,10.0,WNW,3.5,-,N/A,,Clear,300,2013-07-15 02:55:00
9:55 PM,64.0,44.1,48,29.92,10.0,Calm,Calm,-,N/A,,Clear,0,2013-07-15 03:55:00
10:55 PM,55.0,45.0,69,29.94,10.0,Calm,Calm,-,N/A,,Clear,0,2013-07-15 04:55:00
11:55 PM,52.0,44.1,74,29.94,10.0,Calm,Calm,-,N/A,,Clear,0,2013-07-15 05:55:00